Adrian, MI

9:56 AM EDT on April 29, 2017 (GMT -0400)
Lenawee County

Weather History for KADG - April, 2013

Change the Weather History Date:

Sunday, April 21, 2013

  Actual Average Record
Temperature  
Mean Temperature 36 °F -  
Max Temperature 46 °F 61 °F 86 °F (1987)
Min Temperature 25 °F 39 °F 23 °F (1986)
Degree Days  
Heating Degree Days 30    
Moisture  
Dew Point 26 °F    
Average Humidity 67    
Maximum Humidity 88    
Minimum Humidity 50    
Precipitation  
Precipitation 0.00 in - - ()
Sea Level Pressure  
Sea Level Pressure 30.56 in    
Wind  
Wind Speed 4 mph (ESE)    
Max Wind Speed 13 mph    
Max Gust Speed 18 mph    
Visibility 10 miles    
Events      
Averages and records for this station are not official NWS values.
T = Trace of Precipitation, MM = Missing Value Source: NWS Daily Summary

Daily Weather History Graph

Daily Weather History Graph

Search for Another Location

Airport or City:

Trip Planner

Search our weather history database for the weather conditions in past years. The results will help you decide how hot, cold, wet, or windy it might be!

Date:

Astronomy

Apr. 21, 2013 Rise Set
Actual Time 6:46 AM EDT 8:24 PM EDT
Civil Twilight 6:16 AM EDT 8:53 PM EDT
Nautical Twilight 5:41 AM EDT 9:29 PM EDT
Astronomical Twilight 5:03 AM EDT 10:07 PM EDT
Moon 4:04 PM EDT (4/21) 4:12 AM EDT (4/21)
Length of Visible Light 14h 36m
Length of Day
13h 37m
Waxing Gibbous, 79% of the Moon is Illuminated
Apr 21
Waxing Gibbous
Apr 25
Full
May 2
Last Quarter
May 9
New
May 18
First Quarter

Hourly Weather History & Observations

Time (EDT) Temp. Windchill Dew Point Humidity Pressure Visibility Wind Dir Wind Speed Gust Speed Precip Events Conditions
12:53 AM 28.9 °F - 19.9 °F 69% 30.49 in 10.0 mi Calm Calm - N/A   Clear
1:53 AM 27.0 °F - 19.9 °F 75% 30.51 in 10.0 mi Calm Calm - N/A   Clear
2:53 AM 27.0 °F - 21.0 °F 78% 30.52 in 10.0 mi Calm Calm - N/A   Clear
3:53 AM 26.1 °F - 21.0 °F 81% 30.53 in 10.0 mi Calm Calm - N/A   Clear
4:53 AM 26.1 °F - 21.0 °F 81% 30.54 in 10.0 mi Calm Calm - N/A   Clear
5:53 AM 25.0 °F - 21.9 °F 88% 30.56 in 10.0 mi Calm Calm - N/A   Clear
6:53 AM 25.0 °F 20.7 °F 21.9 °F 88% 30.58 in 10.0 mi NNE 3.5 mph - N/A   Clear
7:53 AM 28.9 °F - 24.1 °F 82% 30.61 in 10.0 mi Calm Calm - N/A   Clear
8:53 AM 35.1 °F 28.6 °F 25.0 °F 67% 30.62 in 10.0 mi East 8.1 mph - N/A   Clear
9:53 AM 37.9 °F 32.1 °F 25.0 °F 60% 30.63 in 10.0 mi ESE 8.1 mph - N/A   Clear
10:53 AM 41.0 °F 34.7 °F 26.1 °F 55% 30.63 in 10.0 mi SE 10.4 mph - N/A   Clear
11:53 AM 43.0 °F 37.2 °F 27.0 °F 53% 30.63 in 10.0 mi SE 10.4 mph - N/A   Clear
12:53 PM 45.0 °F 40.6 °F 28.0 °F 52% 30.62 in 10.0 mi ESE 8.1 mph - N/A   Clear
1:53 PM 45.0 °F 38.9 °F 28.9 °F 53% 30.59 in 10.0 mi SE 12.7 mph 17.3 mph N/A   Clear
2:53 PM 46.0 °F 40.2 °F 28.9 °F 51% 30.58 in 10.0 mi SE 12.7 mph 18.4 mph N/A   Scattered Clouds
3:53 PM 46.0 °F 41.4 °F 30.0 °F 54% 30.56 in 10.0 mi East 9.2 mph 16.1 mph N/A   Partly Cloudy
4:53 PM 46.0 °F 41.0 °F 28.0 °F 50% 30.53 in 10.0 mi ESE 10.4 mph - N/A   Clear
5:53 PM 45.0 °F 39.7 °F 28.9 °F 53% 30.52 in 10.0 mi SSE 10.4 mph - N/A   Clear
6:53 PM 44.1 °F 38.6 °F 28.9 °F 55% 30.52 in 10.0 mi ESE 10.4 mph - N/A   Clear
7:53 PM 41.0 °F 34.3 °F 28.0 °F 60% 30.52 in 10.0 mi ESE 11.5 mph - N/A   Clear
8:53 PM 37.9 °F 32.1 °F 27.0 °F 65% 30.52 in 10.0 mi ESE 8.1 mph - N/A   Clear
9:53 PM 37.0 °F 31.0 °F 28.9 °F 73% 30.52 in 10.0 mi ESE 8.1 mph - N/A   Clear
10:53 PM 36.0 °F 29.6 °F 28.9 °F 76% 30.51 in 10.0 mi ESE 8.1 mph - N/A   Clear
11:53 PM 35.1 °F 29.3 °F 28.9 °F 78% 30.50 in 10.0 mi ESE 6.9 mph - N/A   Clear